Location: Newark
(44.5869°N, 123.1150°W)
Time: 03:29:55
(UTC+00:00)

N. Korean satellite - Pass Details

Date: 28 September 2020
Orbit: 453 x 505 km, 97.2° (Epoch: 21 October)

Event Time Altitude Azimuth Distance (km) Brightness Sun altitude
Rises 13:25:23 0° 18° (NNE) 2,584 10.6 -8.3°
Reaches altitude 10° 13:27:34 10° 25° (NNE) 1,688 9.7 -7.9°
Maximum altitude 13:31:02 42° 98° (E) 696 8.0 -7.3°
Drops below altitude 10° 13:34:25 10° 171° (S) 1,644 9.3 -6.7°
Sets 13:36:30 0° 178° (S) 2,508 10.2 -6.3°
